星链-36857(STARLINK-36857)
导读
STARLINK-36857(NORAD编号68518)是美国SpaceX公司星链(Starlink)星座中的第二代低轨通信卫星,属于Gen2星座组网卫星,运行在约550公里的近地轨道。作为星链全球互联网星座的组成部分,该卫星继承了V1.5技术方案,支持激光星间链路,可实现卫星间直接通信,助力构建覆盖全球的低时延高速宽带网络。它主要为全球用户提供互联网接入服务,同时星链系统也具备潜在军事应用价值,可支持远程通信与态势感知能力,是SpaceX大规模低轨卫星部署计划的单元之一。
Basic Information
目录编号:
68518
目录名称:
STARLINK-36857
国际标识:
2026-068L
轨道中心:
EARTH
卫星名称:
星链-36857
卫星全名:
星链-36857(STARLINK-36857)
卫星状态:
在轨 (已飞行158 天)
发射日期:
2026-03-30 UTC
国别 :
美国
(US)
星等 :
--
Orbit Information
| 数据来源 | 国际轨道数据 |
| 星历时间: | 2026-09-04T04:30:30+0800 7小时前 查看轨道信息 |
| 半长轴: | 6840.82km |
| 偏心率: | 0.0001001 |
| 轨道倾角: | 53.160° |
| 近地点辐角 | 82.746° |
| 升交点赤经 | 17.390° |
| 平近点角 | 277.366° |
| 近地点: | 461.998km |
| 远地点: | 463.368km |
| 周期: | 93.847分钟 |
| 每日圈数: | 15.344069 |
Detailed Information
固有亮度:
5
最大亮度:
2.5
卫星平台:
Starlink V1.0
覆盖范围:
全球
运营商:
太空探索技术公司
运营商所在国:
美国
制造商(研发单位):
太空探索技术公司
制造商所在国:
美国
使用方式:
暂无
Satellite Introduction
Starlink 计划是 SpaceX 推出的全球卫星互联网项目,通过发射低轨道卫星,为全球尤其是偏远地区提供高速、低延迟的互联网服务。自 2019 年起,Starlink 已部署数千颗卫星,旨在缩小全球数字鸿沟,推动互联网普及。该项目还为军事、航空等行业提供通信支持,带来广泛经济效益。
2D Orbit Map
3D Orbit Map
Orbit Altitude Analysis Chart
Orbit Inclination Analysis Chart
Orbit Comprehensive Analysis Chart
View Comprehensive ChartConjunction Data List
| Event ID | Objects | TCA | Miss Dist (km) | Collision Risk Probability | Collision Risk Index (CRI) | Action |
|---|---|---|---|---|---|---|
| CDM_260905-135606-058506-851821 |
STARLINK-32130
(60585)
STARLINK-36857
(68518) | 2026-09-05T 13:56:12+0000 |
1.731 km
极远距离 | 3.771682E-6 低风险 | 0.47 | |
| CDM_260904-040800-635006-851821 |
COSMOS 546
(6350)
STARLINK-36857
(68518) | 2026-09-04T 04:08:12+0000 |
1.748 km
极远距离 | 3.277702E-6 低风险 | 0.45 | |
| CDM_260904-202705-720306-851823 |
OBJECT AP
(57203)
STARLINK-36857
(68518) | 2026-09-04T 20:27:51+0000 |
2.070 km
极远距离 | 1.880222E-6 低风险 | 0.4 | |
| CDM_260904-163105-314006-851821 |
STARLINK-4170
(53140)
STARLINK-36857
(68518) | 2026-09-04T 16:31:48+0000 |
2.705 km
极远距离 | 9.785043E-7 极低风险 | 0.35 |

